| time (UTC) | temp C | wind direction | speed KPH | gust KPH | rain 1hr cm | rain 24hr cm | rain mn cm | humidity % | barometer mb |
| 20260502163011 | 10 | 161 | 0.0 | 4.8 | 0.00 | 0.41 | 0.03 | 48 | 1012.5 |
| 20260502161513 | 10 | 27 | 0.0 | 9.7 | 0.00 | 0.41 | 0.03 | 50 | 1012.5 |
| 20260502151605 | 9 | 20 | 0.0 | 24.1 | 0.00 | 0.41 | 0.03 | 56 | 1012.6 |
| 20260502123100 | 6 | 34 | 0.0 | 1.6 | 0.00 | 0.41 | 0.03 | 1 | 1012.9 |
| 20260502121550 | 6 | 208 | 0.0 | 3.2 | 0.00 | 0.41 | 0.03 | 1 | 1012.8 |
| 20260502114541 | 6 | 32 | 0.0 | 3.2 | 0.00 | 0.41 | 0.03 | 1 | 1012.9 |
| 20260502113048 | 6 | 25 | 0.0 | 0.0 | 0.00 | 0.41 | 0.03 | 1 | 1013.0 |
| 20260502111540 | 5 | 84 | 0.0 | 0.0 | 0.00 | 0.41 | 0.03 | 1 | 1012.7 |
| 20260502110037 | 5 | 355 | 0.0 | 0.0 | 0.00 | 0.41 | 0.03 | 1 | 1012.5 |
| 20260502104530 | 5 | 355 | 0.0 | 0.0 | 0.00 | 0.41 | 0.03 | 1 | 1012.6 |
| 20260502103026 | 5 | 355 | 0.0 | 0.0 | 0.00 | 0.41 | 0.03 | 1 | 1012.5 |
| 20260502101519 | 5 | 253 | 0.0 | 0.0 | 0.00 | 0.41 | 0.03 | 1 | 1012.5 |
| 20260502091503 | 6 | 245 | 0.0 | 0.0 | 0.00 | 0.41 | 0.03 | 1 | 1012.0 |
| 20260502090116 | 6 | 245 | 0.0 | 0.0 | 0.00 | 0.41 | 0.03 | 1 | 1011.9 |
| 20260502071526 | 6 | 273 | 0.0 | 0.0 | 0.00 | 0.41 | 0.03 | 1 | 1011.4 |
| 20260502070038 | 6 | 15 | 0.0 | 0.0 | 0.00 | 0.41 | 0.03 | 1 | 1011.3 |
| 20260502064520 | 6 | 16 | 0.0 | 0.0 | 0.00 | 0.41 | 0.03 | 1 | 1011.3 |
| 20260502063031 | 6 | 303 | 0.0 | 0.0 | 0.00 | 0.41 | 0.03 | 1 | 1011.2 |
| 20260502061513 | 6 | 222 | 0.0 | 0.0 | 0.00 | 0.41 | 0.03 | 1 | 1011.5 |
| 20260502060009 | 6 | 220 | 0.0 | 0.0 | 0.00 | 0.41 | 0.03 | 1 | 1011.1 |
| 20260502054518 | 6 | 219 | 0.0 | 0.0 | 0.03 | 0.41 | 0.03 | 1 | 1011.3 |
| 20260502053059 | 6 | 231 | 0.0 | 0.0 | 0.03 | 0.41 | 0.03 | 1 | 1011.2 |
| 20260502051503 | 7 | 9 | 0.0 | 0.0 | 0.03 | 0.41 | 0.03 | 1 | 1011.1 |
| 20260502050059 | 7 | 91 | 0.0 | 0.0 | 0.03 | 0.41 | 0.03 | 1 | 1011.2 |
| 20260502044558 | 7 | 179 | 0.0 | 0.0 | 0.00 | 0.38 | 0.00 | 1 | 1011.4 |
| 20260502043054 | 7 | 186 | 0.0 | 0.0 | 0.03 | 0.38 | 0.38 | 1 | 1011.5 |
| 20260502041556 | 7 | 190 | 0.0 | 0.0 | 0.05 | 0.38 | 0.38 | 1 | 1011.2 |
| 20260502040045 | 7 | 240 | 0.0 | 0.0 | 0.05 | 0.38 | 0.38 | 1 | 1011.2 |
| 20260502034545 | 7 | 216 | 0.0 | 0.0 | 0.05 | 0.38 | 0.38 | 1 | 1011.1 |
| 20260502033044 | 7 | 238 | 0.0 | 0.0 | 0.05 | 0.38 | 0.38 | 1 | 1011.0 |
| 20260502031554 | 7 | 267 | 0.0 | 0.0 | 0.03 | 0.33 | 0.33 | 1 | 1011.0 |
| 20260502030043 | 8 | 200 | 0.0 | 0.0 | 0.05 | 0.33 | 0.33 | 1 | 1011.0 |
| 20260502024541 | 8 | 201 | 0.0 | 0.0 | 0.08 | 0.33 | 0.33 | 1 | 1011.0 |
| 20260502023046 | 8 | 200 | 0.0 | 0.0 | 0.08 | 0.33 | 0.33 | 1 | 1011.2 |
| 20260502021531 | 8 | 201 | 0.0 | 0.0 | 0.10 | 0.33 | 0.33 | 1 | 1011.2 |
| 20260502020028 | 8 | 200 | 0.0 | 0.0 | 0.05 | 0.28 | 0.28 | 1 | 1011.2 |
| 20260502014524 | 8 | 200 | 0.0 | 0.0 | 0.05 | 0.25 | 0.25 | 1 | 1011.0 |
| 20260502013018 | 8 | 200 | 0.0 | 0.0 | 0.08 | 0.25 | 0.25 | 1 | 1011.0 |
| 20260502011516 | 8 | 200 | 0.0 | 0.0 | 0.05 | 0.23 | 0.23 | 1 | 1011.1 |
| 20260502010013 | 8 | 201 | 0.0 | 0.0 | 0.08 | 0.23 | 0.23 | 1 | 1011.1 |
| 20260502004508 | 8 | 200 | 0.0 | 0.0 | 0.10 | 0.20 | 0.20 | 1 | 1011.0 |
| 20260502003003 | 8 | 200 | 0.0 | 0.0 | 0.10 | 0.18 | 0.18 | 1 | 1010.9 |
| 20260502001520 | 9 | 200 | 0.0 | 0.0 | 0.13 | 0.18 | 0.18 | 1 | 1010.8 |
| 20260502000012 | 9 | 200 | 0.0 | 0.0 | 0.15 | 0.15 | 0.15 | 1 | 1010.7 |
| 20260501234508 | 10 | 200 | 0.0 | 0.0 | 0.13 | 0.13 | 0.13 | 3 | 1010.6 |
| 20260501233005 | 10 | 200 | 0.0 | 0.0 | 0.08 | 0.08 | 0.08 | 20 | 1010.5 |
| 20260501231559 | 10 | 44 | 0.0 | 0.0 | 0.05 | 0.05 | 0.05 | 36 | 1010.5 |
| 20260501230051 | 11 | 279 | 0.0 | 0.0 | 0.00 | 0.00 | 0.00 | 51 | 1010.3 |
| 20260501224604 | 11 | 247 | 0.0 | 0.0 | 0.00 | 0.00 | 0.00 | 58 | 1010.0 |
| 20260501223042 | 11 | 218 | 0.0 | 11.3 | 0.00 | 0.00 | 0.00 | 59 | 1009.9 |
| 20260501221546 | 12 | 245 | 0.0 | 0.0 | 0.00 | 0.00 | 0.00 | 58 | 1009.9 |
| 20260501220043 | 12 | 108 | 0.0 | 0.0 | 0.00 | 0.00 | 0.00 | 58 | 1009.9 |
| 20260501214535 | 12 | 188 | 0.0 | 0.0 | 0.00 | 0.00 | 0.00 | 57 | 1010.0 |
| 20260501213031 | 12 | 186 | 0.0 | 0.0 | 0.00 | 0.00 | 0.00 | 57 | 1010.0 |
| 20260501211521 | 12 | 235 | 0.0 | 0.0 | 0.00 | 0.00 | 0.00 | 57 | 1009.9 |
| 20260501210015 | 12 | 155 | 0.0 | 0.0 | 0.00 | 0.00 | 0.00 | 58 | 1009.8 |
| 20260501204511 | 11 | 219 | 0.0 | 0.0 | 0.00 | 0.00 | 0.00 | 58 | 1010.0 |
| 20260501203007 | 11 | 5 | 0.0 | 0.0 | 0.00 | 0.00 | 0.00 | 58 | 1009.9 |
| 20260501201511 | 11 | 5 | 0.0 | 0.0 | 0.00 | 0.00 | 0.00 | 57 | 1009.9 |
| 20260501200006 | 11 | 308 | 0.0 | 0.0 | 0.00 | 0.00 | 0.00 | 58 | 1010.1 |
| 20260501194603 | 11 | 119 | 0.0 | 0.0 | 0.00 | 0.00 | 0.00 | 58 | 1010.2 |
| 20260501193055 | 12 | 355 | 0.0 | 0.0 | 0.00 | 0.00 | 0.00 | 58 | 1010.1 |
| 20260501191556 | 12 | 360 | 0.0 | 0.0 | 0.00 | 0.00 | 0.00 | 58 | 1010.1 |
| 20260501190050 | 12 | 15 | 0.0 | 17.7 | 0.00 | 0.00 | 0.00 | 55 | 1010.2 |
| 20260501184546 | 13 | 255 | 0.0 | 1.6 | 0.00 | 0.00 | 0.00 | 50 | 1010.2 |
| 20260501183041 | 13 | 290 | 0.0 | 0.0 | 0.00 | 0.00 | 0.00 | 50 | 1009.9 |
| 20260501181541 | 14 | 213 | 0.0 | 3.2 | 0.00 | 0.00 | 0.00 | 50 | 1010.1 |
| 20260501180038 | 14 | 32 | 0.0 | 6.4 | 0.00 | 0.00 | 0.00 | 52 | 1010.1 |
| 20260501174532 | 13 | 233 | 0.0 | 1.6 | 0.00 | 0.00 | 0.00 | 53 | 1010.3 |
| 20260501173037 | 13 | 236 | 0.0 | 4.8 | 0.00 | 0.00 | 0.00 | 53 | 1010.3 |
| 20260501171519 | 13 | 223 | 0.0 | 1.6 | 0.00 | 0.00 | 0.00 | 53 | 1010.3 |
| 20260501170015 | 13 | 219 | 0.0 | 1.6 | 0.00 | 0.00 | 0.00 | 53 | 1010.6 |